Location: Newark
(45.2500°N, 7.7167°E)
Time: 15:06:37
(UTC+00:00)

ISS - Pass Details

Date: 30 October 2019
Orbit: 412 x 421 km, 51.6° (Epoch: 15 November)

Event Time Altitude Azimuth Distance (km) Brightness Sun altitude
Exits shadow 04:44:13 30° 290° (WNW) 780 -3.0 -14.7°
Maximum altitude 04:45:23 44° 340° (NNW) 600 -3.2 -14.5°
Drops below altitude 10° 04:48:39 10° 54° (NE) 1,508 -0.2 -13.9°
Sets 04:50:49 0° 61° (ENE) 2,373 1.0 -13.5°
